TimeCDT,TemperatureF,Dew PointF,Humidity,Sea Level PressureIn,VisibilityMPH,Wind Direction,Wind SpeedMPH,Gust SpeedMPH,PrecipitationIn,Events,Conditions,WindDirDegrees,DateUTC
12:15 AM,30.2,30.2,100,29.95,10.0,North,21.9,26.5,N/A,,Overcast,10,2013-04-18 05:15:00
12:35 AM,30.2,30.2,100,29.94,10.0,North,20.7,-,N/A,,Overcast,10,2013-04-18 05:35:00
12:55 AM,32.0,32.0,100,29.94,10.0,North,20.7,-,N/A,,Overcast,10,2013-04-18 05:55:00
1:15 AM,32.0,32.0,100,29.94,10.0,North,19.6,24.2,N/A,,Overcast,360,2013-04-18 06:15:00
1:35 AM,32.0,32.0,100,29.93,10.0,North,20.7,25.3,N/A,,Overcast,360,2013-04-18 06:35:00
1:55 AM,32.0,32.0,100,29.92,10.0,North,19.6,26.5,N/A,,Overcast,360,2013-04-18 06:55:00
2:15 AM,32.0,32.0,100,29.92,10.0,North,19.6,26.5,N/A,,Overcast,10,2013-04-18 07:15:00
2:35 AM,32.0,32.0,100,29.95,10.0,North,17.3,20.7,N/A,,Overcast,10,2013-04-18 07:35:00
2:55 AM,32.0,32.0,100,29.92,10.0,North,18.4,-,N/A,,Overcast,360,2013-04-18 07:55:00
3:15 AM,30.2,30.2,100,29.89,10.0,North,20.7,-,N/A,,Overcast,360,2013-04-18 08:15:00
3:35 AM,30.2,30.2,100,29.90,10.0,North,23.0,28.8,N/A,Rain,Freezing Rain,10,2013-04-18 08:35:00
3:55 AM,30.2,30.2,100,29.91,10.0,North,19.6,28.8,N/A,Rain,Freezing Rain,360,2013-04-18 08:55:00
4:15 AM,28.4,28.4,100,29.90,10.0,North,26.5,33.4,N/A,Rain,Freezing Rain,360,2013-04-18 09:15:00
4:35 AM,28.4,28.4,100,29.88,10.0,North,21.9,27.6,N/A,Rain,Freezing Rain,360,2013-04-18 09:35:00
4:55 AM,28.4,28.4,100,29.86,10.0,North,25.3,33.4,N/A,Rain,Freezing Rain,10,2013-04-18 09:55:00
5:15 AM,28.4,28.4,100,29.86,10.0,North,24.2,33.4,N/A,Rain,Freezing Rain,10,2013-04-18 10:15:00
5:35 AM,28.4,28.4,100,29.84,5.0,North,24.2,31.1,N/A,Rain,Freezing Rain,10,2013-04-18 10:35:00
5:55 AM,28.4,28.4,100,29.85,4.0,North,24.2,29.9,0.02,,Overcast,360,2013-04-18 10:55:00
6:15 AM,28.4,28.4,100,29.85,1.0,North,18.4,29.9,0.03,Snow,Light Snow,360,2013-04-18 11:15:00
6:35 AM,28.4,28.4,100,29.84,1.2,North,19.6,26.5,0.11,Snow,Light Snow,350,2013-04-18 11:35:00
6:55 AM,28.4,28.4,100,29.84,1.0,North,21.9,25.3,0.16,,Overcast,360,2013-04-18 11:55:00
7:15 AM,28.4,28.4,100,29.83,0.5,North,24.2,32.2,0.10,,Overcast,350,2013-04-18 12:15:00
7:35 AM,28.4,28.4,100,29.82,0.5,North,25.3,28.8,0.23,,Overcast,350,2013-04-18 12:35:00
7:55 AM,28.4,28.4,100,29.82,1.2,North,21.9,29.9,0.30,,Mostly Cloudy,350,2013-04-18 12:55:00
8:15 AM,28.4,28.4,100,29.82,0.5,North,25.3,35.7,0.16,,Mostly Cloudy,350,2013-04-18 13:15:00
8:35 AM,26.6,26.6,100,29.82,0.5,North,21.9,31.1,0.43,Snow,Snow,350,2013-04-18 13:35:00
8:55 AM,26.6,26.6,100,29.82,0.5,NNW,23.0,29.9,0.92,Snow,Snow,340,2013-04-18 13:55:00
9:15 AM,26.6,26.6,100,29.83,1.0,NNW,23.0,-,0.39,,Mostly Cloudy,340,2013-04-18 14:15:00
9:35 AM,28.4,28.4,100,29.84,0.8,NNW,20.7,28.8,0.81,Snow,Light Snow,340,2013-04-18 14:35:00
9:55 AM,28.4,28.4,100,29.85,1.5,NNW,19.6,25.3,1.14,Snow,Light Snow,340,2013-04-18 14:55:00
10:15 AM,28.4,28.4,100,29.84,1.5,NNW,20.7,25.3,0.18,Snow,Light Snow,340,2013-04-18 15:15:00
10:35 AM,28.4,28.4,100,29.84,1.0,NNW,20.7,-,0.58,Snow,Light Snow,340,2013-04-18 15:35:00
10:55 AM,28.4,28.4,100,29.84,0.8,NNW,20.7,28.8,1.24,Snow,Light Snow,340,2013-04-18 15:55:00
11:15 AM,28.4,28.4,100,29.82,0.8,NNW,23.0,28.8,0.58,Snow,Light Snow,330,2013-04-18 16:15:00
11:35 AM,28.4,28.4,100,29.82,0.2,NNW,20.7,26.5,2.68,Snow,Heavy Snow,330,2013-04-18 16:35:00
11:55 AM,28.4,28.4,100,29.81,1.0,NNW,23.0,-,3.18,Snow,Light Snow,340,2013-04-18 16:55:00
12:15 PM,28.4,28.4,100,29.80,2.0,NNW,23.0,31.1,0.07,Snow,Light Snow,330,2013-04-18 17:15:00
12:35 PM,28.4,28.4,100,29.80,3.0,NNW,25.3,32.2,0.11,Snow,Light Snow,340,2013-04-18 17:35:00
12:55 PM,28.4,28.4,100,29.80,1.2,NNW,27.6,32.2,0.26,Snow,Light Snow,340,2013-04-18 17:55:00
1:15 PM,28.4,28.4,100,29.79,0.5,NNW,24.2,29.9,0.64,Snow,Snow,330,2013-04-18 18:15:00
1:35 PM,28.4,28.4,100,29.79,1.0,NNW,27.6,33.4,1.06,Snow,Light Snow,330,2013-04-18 18:35:00
1:55 PM,28.4,28.4,100,29.79,1.0,NNW,24.2,29.9,1.44,Snow,Light Snow,330,2013-04-18 18:55:00
2:15 PM,28.4,28.4,100,29.79,1.0,NNW,25.3,31.1,0.27,Snow,Light Snow,330,2013-04-18 19:15:00
2:35 PM,28.4,28.4,100,29.80,0.8,NNW,27.6,34.5,0.53,Snow,Light Snow,330,2013-04-18 19:35:00
3:15 PM,28.4,28.4,100,29.79,0.8,NNW,32.2,38.0,0.17,Snow,Light Snow,340,2013-04-18 20:15:00
3:35 PM,28.4,28.4,100,29.79,1.8,NNW,27.6,35.7,0.35,Snow,Light Snow,330,2013-04-18 20:35:00
3:55 PM,28.4,28.4,100,29.79,1.0,NNW,27.6,34.5,0.52,Snow,Light Snow,330,2013-04-18 20:55:00
4:15 PM,28.4,28.4,100,29.79,0.8,NNW,26.5,34.5,0.28,Snow,Light Snow,330,2013-04-18 21:15:00
4:35 PM,28.4,28.4,100,29.80,1.2,NNW,25.3,33.4,0.40,Snow,Light Snow,330,2013-04-18 21:35:00
4:55 PM,28.4,28.4,100,29.80,2.0,NNW,25.3,33.4,0.48,Snow,Light Snow,330,2013-04-18 21:55:00
5:15 PM,28.4,28.4,100,29.80,0.8,NNW,26.5,34.5,0.18,Snow,Light Snow,330,2013-04-18 22:15:00
5:35 PM,28.4,28.4,100,29.80,0.8,NNW,27.6,33.4,0.54,Snow,Light Snow,330,2013-04-18 22:35:00
5:55 PM,28.4,28.4,100,29.81,0.8,NNW,26.5,35.7,0.75,Snow,Light Snow,340,2013-04-18 22:55:00
6:15 PM,28.4,28.4,100,29.81,0.8,NNW,24.2,31.1,0.09,Snow,Light Snow,340,2013-04-18 23:15:00
6:35 PM,28.4,28.4,100,29.81,1.2,NNW,24.2,29.9,0.16,Snow,Light Snow,330,2013-04-18 23:35:00
6:55 PM,28.4,28.4,100,29.81,1.5,NNW,24.2,31.1,0.23,Snow,Light Snow,330,2013-04-18 23:55:00
7:15 PM,28.4,28.4,100,29.81,1.5,NNW,25.3,34.5,0.03,Snow,Light Snow,330,2013-04-19 00:15:00
7:35 PM,28.4,28.4,100,29.82,1.8,NNW,21.9,28.8,0.07,Snow,Light Snow,330,2013-04-19 00:35:00
7:55 PM,28.4,28.4,100,29.82,1.2,NNW,24.2,29.9,0.12,Snow,Light Snow,340,2013-04-19 00:55:00
8:15 PM,28.4,28.4,100,29.82,1.5,NNW,29.9,38.0,0.03,Snow,Light Snow,340,2013-04-19 01:15:00
8:35 PM,28.4,28.4,100,29.83,3.0,NNW,25.3,35.7,0.07,Snow,Light Snow,330,2013-04-19 01:35:00
8:55 PM,28.4,28.4,100,29.83,10.0,NNW,27.6,33.4,0.08,,Overcast,330,2013-04-19 01:55:00
9:15 PM,28.4,28.4,100,29.83,10.0,NNW,25.3,33.4,N/A,,Overcast,330,2013-04-19 02:15:00
9:35 PM,28.4,28.4,100,29.83,10.0,NNW,26.5,32.2,N/A,,Mostly Cloudy,330,2013-04-19 02:35:00
10:15 PM,26.6,26.6,100,29.83,10.0,NNW,25.3,32.2,N/A,,Clear,330,2013-04-19 03:15:00
10:35 PM,26.6,26.6,100,29.83,10.0,NNW,26.5,31.1,N/A,,Clear,330,2013-04-19 03:35:00
10:55 PM,24.8,24.8,100,29.83,10.0,NW,25.3,-,N/A,,Clear,320,2013-04-19 03:55:00
11:15 PM,24.8,24.8,100,29.82,10.0,NNW,26.5,34.5,N/A,,Clear,330,2013-04-19 04:15:00
11:35 PM,24.8,24.8,100,29.82,10.0,NNW,26.5,32.2,N/A,,Clear,330,2013-04-19 04:35:00
11:55 PM,24.8,24.8,100,29.81,10.0,NW,24.2,31.1,N/A,,Clear,320,2013-04-19 04:55:00